Home   Weather   Pirassununga   Past weeks

Flag for Brazil Past Weather in Pirassununga, São Paulo, Brazil — Yesterday and Last 2 Weeks

Now
86 °F

Passing clouds.


Feels Like: 89 °F
Forecast: 68 / 88 °F
Wind: 5 mph from North

Location: Pirassununga Airport

Current Time: Jan 21, 2018 at 4:04:58 pm

Latest Report: Jan 21, 2018 at 3:00 pm


Visibility: N/A

Pressure: 29.98 "Hg (27.92 "Hg at 632m altitude)

Humidity: 55%

Dew Point: 68 °F

Location of PirassunungaLocation

Past Weather in Pirassununga — Graph

°F

Pirassununga Temperature Yesterday

Maximum temperature yesterday: 90 °F (at 5:00 pm)
Minimum temperature yesterday: 70 °F (at 6:00 am)
Average temperature yesterday: 77 °F

High & Low Weather Summary for the Past Weeks

 TemperatureHumidityPressure
High91 °F (Jan 18, 2:00 pm)100% (Jan 6, 10:00 pm)30.18 "Hg (Jan 6, 10:00 pm)
Low64 °F (Jan 7, 6:00 am)38% (Jan 18, 6:00 pm)29.89 "Hg (Jan 13, 4:00 pm)
Average75 °F78%30.04 "Hg
* Reported Jan 6 2:00 pm — Jan 21 2:00 pm, Pirassununga. Weather by CustomWeather, © 2018

Note: Actual official high and low records may vary slightly from our data, if they occured in-between our weather recording intervals... More about our weather records

Advertising

Pirassununga Weather History for the Previous 24 Hours

Scroll right to see more
 ConditionsComfort  
Time TempWeatherWind HumidityBarometerVisibility
2:00 pm
Sun, Jan 21
84 °FPassing clouds.3 mph58%30.01 "HgN/A
1:00 pm81 °FSunny.2 mph70%30.01 "Hg10 mi
12:00 pm77 °FPassing clouds.6 mph79%30.04 "HgN/A
11:00 am73 °FSunny.7 mph89%30.07 "Hg10 mi
10:00 am72 °FOvercast.8 mph94%30.04 "HgN/A
9:00 am70 °FMore clouds than sun.7 mph100%30.04 "HgN/A
8:00 am72 °FMore clouds than sun.9 mph88%30.04 "HgN/A
7:00 am70 °FSunny.2 mph94%30.04 "Hg10 mi
6:00 am70 °FClear.5 mph94%30.01 "Hg10 mi
11:00 pm
Sat, Jan 20
72 °FClear.12 mph83%30.04 "Hg10 mi
10:00 pm72 °FClear.6 mph88%30.04 "Hg10 mi
9:00 pm72 °FPassing clouds.2 mph83%30.01 "HgN/A
8:00 pm72 °FPassing clouds.8 mph78%29.98 "HgN/A
7:00 pm73 °FScattered showers. Scattered clouds.12 mph69%29.98 "HgN/A
6:00 pm73 °FThunderstorms. Broken clouds.20 mph69%29.98 "Hg5 mi
5:00 pm90 °FScattered clouds.7 mph46%29.95 "HgN/A
4:00 pm88 °FPassing clouds.6 mph49%29.98 "HgN/A
Weather by CustomWeather, © 2018

See weather overview